Regional Weather Roundup
Issued by NWS

Home | Current Version | Previous Version | Text Only | Print | Product List | Glossary Off
Versions: 1 2 3 4 5 6 7 8 9 10 11 12 13 14 15 16 17 18 19 20 21 22 23 24 25 26 27 28 29 30 31 32 33 34 35 36 37 38 39 40 41 42 43 44 45 46 47 48 49 50

000
ASUS43 KLSX 250407
RWRMO

WEATHER SUMMARY FOR MISSOURI
NATIONAL WEATHER SERVICE SPRINGFIELD MO
1100 PM CDT SAT SEP 24 2016

NOTE: "FAIR" INDICATES FEW OR NO CLOUDS BELOW 12,000 FEET WITH NO
       SIGNIFICANT WEATHER AND/OR OBSTRUCTIONS TO VISIBILITY.
       CURRENT SKY AND/OR WEATHER CONDITIONS ARE NOT AVAILABLE FOR
       CHILLICOTHE AND FARMINGTON.

MOZ001>031-035>038-043-044-053-054-250500-
...NORTHERN AND WESTERN MISSOURI...

CITY           SKY/WX    TMP DP  RH WIND       PRES   REMARKS
KANSAS CTY INT CLOUDY    69  66  90 NE6       30.00S
KANSAS C DTWN  CLOUDY    74  67  78 N8        29.98S
LEE`S SUMMIT   CLOUDY    79  70  74 S10       30.00R
ST JOSEPH      CLOUDY    69  68  96 E3        29.99S
CHILLICOTHE      N/A     78  71  79 SE5       30.01S
KIRKSVILLE     MOCLDY    74  68  81 S6        30.04S

$$
MOZ066>068-077>081-088>096-101>105-250500-
...SOUTHWEST MISSOURI...

CITY           SKY/WX    TMP DP  RH WIND       PRES   REMARKS
SPRINGFIELD    CLEAR     76  67  73 SE8       30.04F
JOPLIN         PTCLDY    77  68  73 SE10        N/A
BRANSON        CLEAR     73  68  83 SE5       30.08S

$$
MOZ032>034-039>042-045>050-055>058-069>072-250500-
...CENTRAL MISSOURI...

CITY           SKY/WX    TMP DP  RH WIND       PRES   REMARKS
COLUMBIA       CLEAR     75  69  81 SE6       30.05R
JEFFERSON CITY CLEAR     75  70  84 E6        30.03R
ROLLA          CLEAR     73  68  84 SE7       30.06R
SEDALIA        CLOUDY    76  70  82 SE8       30.03R
WHITEMAN AFB   PTCLDY    77  72  86 S9        30.00R
OSAGE BEACH    CLEAR     74  69  85 SE3       30.05S

$$
MOZ051-052-059>065-250500-
...EAST CENTRAL MISSOURI...

CITY           SKY/WX    TMP DP  RH WIND       PRES   REMARKS
ST LOUIS INTL  CLEAR     81  67  62 SE7       30.05S
SPIRIT OF STL  CLEAR     71  70  96 CALM      30.04R
ST CHARLES     CLEAR     71  69  93 E5        30.04R

$$
MOZ072>076-082>087-097>100-106>115-250500-
...SOUTH CENTRAL AND SOUTHEAST MISSOURI...

CITY           SKY/WX    TMP DP  RH WIND       PRES   REMARKS
CAPE GIRARDEAU CLEAR     72  69  90 E3        30.05R
FARMINGTON     CLEAR     69  68  96 CALM      30.09R FOG
WEST PLAINS    CLEAR     69  66  90 CALM      30.10S

$$


USA.gov is the U.S. government's official web portal to all federal, state and local government web resources and services.